Regional Weather Roundup
Issued by NWS

Home | Current Version | Previous Version | Text Only | Print | Product List | Glossary Off
Versions: 1 2 3 4 5 6 7 8 9 10 11 12 13 14 15 16 17 18 19 20 21 22 23 24 25 26 27 28 29 30 31 32 33 34 35 36 37 38 39 40 41 42 43 44 45 46 47 48 49 50

000
ASUS43 KDTX 031710
RWRMI
MICHIGAN HOURLY REGIONAL WEATHER ROUNDUP
NATIONAL WEATHER SERVICE DETROIT/PONTIAC MI
100 PM EDT SUN MAY 03 2015

NOTE: "FAIR" INDICATES FEW OR NO CLOUDS BELOW 12,000 FEET WITH NO
SIGNIFICANT WEATHER AND/OR OBSTRUCTION TO VISIBILITY.

MIZ047>049-052>055-059>063-066>070-074>076-081>083-031800-
SOUTHEAST LOWER MICHIGAN

CITY           SKY/WX    TMP DP  RH WIND       PRES   REMARKS
ADRIAN         SUNNY     74  42  31 SW14G21   30.06F
ALMA           MOSUNNY   78  40  25 SW14G22   29.99F
ANN ARBOR      SUNNY     76  42  29 SW15      30.05S
BAD AXE        SUNNY     76  37  24 W14G23    30.00F
CARO           SUNNY     77  44  31 CALM      29.99F
DETROIT CITY   SUNNY     75  42  30 SW17G26   30.04F
DETROIT        MOSUNNY   79  43  27 S16G22    30.05F
FLINT          SUNNY     79  40  24 S14G21    30.01F
GROSSE ILE     SUNNY     64  52  63 S13       30.05S
HILLSDALE      SUNNY     75  41  29 SW10G21   30.06S
HOWELL         SUNNY     76  38  25 S10G21    30.02F

CITY           SKY/WX    TMP DP  RH WIND       PRES   REMARKS
JACKSON        SUNNY     75  42  30 SW17G26   30.04S
LAMBERTVILLE   SUNNY     77  43  29 SW9G17    30.06F
LANSING        SUNNY     76  42  29 SW17G23   30.02F
LAPEER         FAIR      76  36  23 SW8       30.02F
MASON          SUNNY     75  40  28 S7G21     30.03S
MONROE         SUNNY     75  45  33 S10       30.04F
MT. CLEMENS    MOSUNNY   78  42  27 SW16      30.02S
PONTIAC        MOSUNNY   75  39  27 S13G21    30.03S
PORT HOPE        N/A     77  41  27 SW10G17   29.97F
PORT HURON     SUNNY     77  43  29 SW7G18    30.03S
TRI CITIES     SUNNY     79  40  24 SW17G32   29.99F
MIDLAND        FAIR      79  40  25 S16G26    29.98S
TROY           SUNNY     77  38  23 SW13G18   30.05F
SAGINAW HB     SUNNY     79  37  22 SW16G25   29.99F
$$
MIZ043>046-050>051-056>058-064>065-071>073-077>080-031800-
SOUTHWEST LOWER MICHIGAN

CITY           SKY/WX    TMP DP  RH WIND       PRES   REMARKS
BATTLE CREEK   CLOUDY    75  43  31 SW15      30.03F
BENTON HARBOR  MOSUNNY   74  45  35 SW13G24   29.99F
BIG RAPIDS     CLOUDY    73  40  30 SW13G18   29.97S
COLDWATER      SUNNY     74  41  31 SW15G24   30.04S
FREMONT        PTSUNNY   73  39  29 SW9G16    29.98S
HOLLAND        MOSUNNY   76  44  32 SW20G26   30.00S
GRAND RAPIDS   PTSUNNY   77  43  29 SW14G23   30.00S
IONIA          FAIR      78  41  26 W18       29.99S
KALAMAZOO      PTSUNNY   74  42  31 SW14      30.02F
LUDINGTON      PTSUNNY   73  42  31 S16       29.96S
MARSHALL       SUNNY     74  43  32 S6G20     30.03S
MOUNT PLEASANT CLOUDY    79  40  24 S16G23    29.98S
MUSKEGON       PTSUNNY   71  42  35 S14G22    30.00R
SOUTH HAVEN    MOSUNNY   78  38  24 S13G23    29.99F
$$
MIZ016>042-031800-
NORTHERN LOWER MICHIGAN

CITY           SKY/WX    TMP DP  RH WIND       PRES   REMARKS
ALPENA         SUNNY     80  40  23 SW14G23   29.92F
BEAVER ISLAND  CLOUDY    68  46  45 SW12G20   29.91R
BELLAIRE       MOSUNNY   76  47  35 SW9G16    29.92S
CADILLAC       PTSUNNY   73  46  39 SW16      29.97S
CHARLEVOIX     CLOUDY    73  50  44 SW14G20   29.94S
FRANKFORT      PTSUNNY   72  35  25 S14G25    29.93S
GAYLORD        PTSUNNY   72  46  39 SW15G25   29.93S
GRAYLING       PTSUNNY   74  42  31 SW10G21   29.96R
HARBOR SPRINGS PTSUNNY   69  48  46 SW6       29.92R
HOUGHTON LAKE  CLOUDY    71  42  35 SW14G24   29.97S
MANISTEE       PTSUNNY   73  41  31 S16G24    29.95S
OSCODA         SUNNY     79  42  27 S15G26    29.94F
PELLSTON       MOSUNNY   75  48  38 SW14G23   29.91R
ROGERS CITY    PTSUNNY   78  44  29 SW16      29.90S
TRAVERSE CITY  PTSUNNY   75  48  38 S12G20    29.92F
$$
MIZ007>008-015-031800-
EASTERN UPPER MICHIGAN

CITY           SKY/WX    TMP DP  RH WIND       PRES   REMARKS
KINROSS        SUNNY     72  48  43 W15G28    29.89S
MACKINAC ISLAN SUNNY     67  48  51 W13G21    29.90S
NEWBERRY       MOSUNNY   69  49  49 SW17G33   29.88R
S. S. MARIE    SUNNY     73  48  41 S18G24    29.86S
MUNISING         N/A     64  46  52 N5        29.80F
$$
MIZ004>006-011>014-085-031800-
CENTRAL UPPER MICHIGAN

CITY           SKY/WX    TMP DP  RH WIND       PRES   REMARKS
MANISTIQUE     SUNNY     49  39  68 S16       29.88S
ESCANABA       MOSUNNY   64  48  55 S15G22    29.83F
MENOMINEE      PTSUNNY   75  52  43 S16G22    29.84S
SAWYER-GWINN   SUNNY     75  48  38 SW9G16    29.81F
$$
MIZ001>003-009>011-084-031800-
WESTERN UPPER MICHIGAN

CITY           SKY/WX    TMP DP  RH WIND       PRES   REMARKS
IRON MOUNTAIN  SUNNY     77  51  40 S12G22    29.80S
HOUGHTON       MOSUNNY   69  54  58 S10       29.76R
COPPER HARBOR    N/A     69  52  54 W12G21    29.73R
IRONWOOD       MOSUNNY   75  52  43 W9G16     29.73S
$$

ABBREVIATIONS USED IN REMARKS
   TC - TEMPERATURE IN CELSIUS
  WCI - WIND CHILL INDEX
   HX - HEAT INDEX
  VSB - VISIBILITY



USA.gov is the U.S. government's official web portal to all federal, state and local government web resources and services.